Location: Kellogg
(38.0159°N, 90.0546°W)
Time: 16:08:01
(UTC+00:00)

Transit 2A - Pass Details

Date: 22 September 2024
Orbit: 590 x 960 km, 66.7° (Epoch: 07 October)

Event Time Altitude Azimuth Distance (km) Brightness Sun altitude
Rises 05:49:25 0° 345° (NNW) 3,635 10.1 -51.9°
Enters shadow 05:52:44 - 5° (N) 2,864 9.4 -51.9°
Reaches altitude 10° 05:54:07 10° 16° (NNE) 2,643 - -51.9°
Maximum altitude 05:56:15 12° 37° (NE) 2,486 - -51.9°
Drops below altitude 10° 05:58:21 10° 57° (ENE) 2,580 - -51.9°
Sets 06:02:45 0° 89° (E) 3,431 - -51.8°
